Home   Weather   St. Louis   Past weeks

Flag for USA Past Weather in St. Louis, Missouri, USA — Yesterday and Last 2 Weeks

Now
22 °F

Clear.


Feels Like: 12 °F
Forecast: 18 / 29 °F
Wind: 9 mph from Northwest

Location: Lambert-St. Louis International Airport

Current Time: Dec 9, 2016 at 12:08:42 am

Latest Report: Dec 8, 2016 at 10:51 pm


Visibility: 10 mi

Pressure: 30.63 "Hg

Humidity: 62%

Dew Point: 11 °F

Location of St. LouisLocation

Past Weather in St. Louis — Graph

°F

St. Louis Temperature Yesterday

Maximum temperature yesterday: 30 °F (at 12:51 pm)
Minimum temperature yesterday: 22 °F (at 5:51 am)
Average temperature yesterday: 26 °F

High & Low Weather Summary for the Past Weeks

 TemperatureHumidityPressure
High62 °F (Nov 29, 1:51 pm)89% (Nov 25, 1:51 am)30.63 "Hg (Nov 25, 1:51 am)
Low22 °F (Dec 8, 5:51 am)39% (Dec 7, 12:51 pm)29.24 "Hg (Nov 28, 4:51 pm)
Average41 °F68%30.07 "Hg
* Reported Nov 23 9:51 pm — Dec 8 9:51 pm, St. Louis, Weather by CustomWeather, © 2016

Note: Actual official high and low records may vary slightly from our data, if they occured in-between our weather recording intervals... More about our weather records

Advertising

St. Louis Weather History for the Previous 24 Hours

Scroll right to see more
 ConditionsComfort  
Time TempWeatherWind HumidityBarometerVisibility
9:51 pm
Thu, Dec 8
23 °FPassing clouds.8 mph63%30.63 "Hg10 mi
8:51 pm25 °FPassing clouds.12 mph55%30.62 "Hg10 mi
7:51 pm26 °FPassing clouds.12 mph52%30.62 "Hg10 mi
6:51 pm26 °FPassing clouds.13 mph52%30.62 "Hg10 mi
5:51 pm26 °FPassing clouds.8 mph52%30.60 "Hg10 mi
4:51 pm27 °FPassing clouds.10 mph51%30.58 "Hg10 mi
3:51 pm29 °FPassing clouds.10 mph47%30.55 "Hg10 mi
2:51 pm30 °FScattered clouds.21 mph45%30.53 "Hg10 mi
1:51 pm30 °FScattered clouds.18 mph45%30.52 "Hg10 mi
12:51 pm30 °FPassing clouds.23 mph45%30.53 "Hg10 mi
11:51 am29 °FPassing clouds.17 mph47%30.53 "Hg10 mi
10:51 am27 °FPassing clouds.15 mph49%30.55 "Hg10 mi
9:51 am25 °FScattered clouds.16 mph53%30.55 "Hg10 mi
8:51 am24 °FScattered clouds.22 mph55%30.52 "Hg10 mi
7:51 am22 °FPassing clouds.17 mph60%30.50 "Hg10 mi
6:51 am22 °FPassing clouds.16 mph60%30.47 "Hg10 mi
5:51 am22 °FClear.13 mph60%30.46 "Hg10 mi
4:51 am23 °FClear.17 mph57%30.44 "Hg10 mi
3:51 am24 °FClear.20 mph55%30.42 "Hg10 mi
2:51 am24 °FClear.14 mph55%30.43 "Hg10 mi
1:51 am25 °FClear.13 mph55%30.42 "Hg10 mi
12:51 am26 °FPassing clouds.12 mph55%30.40 "Hg10 mi
Weather by CustomWeather, © 2016

See weather overviewHow to use our weather pages